[[{"header":{"parameterUnit":"m.s-1","parameterCategory":1,"la1":30.2991,"la2":30.254,"lo1":-89.0895,"lo2":-89.0444,"dy":0.0017,"dx":0.0017,"nx":28,"ny":28,"refTime":"2023-11-07T03:00:00:Z","depth":0,"parameterNumber":2,"parameterNumberName":"U-component_of_WINDS"},"data":[0,0,0,0,0,0,0,0,0,0,0,0,0,0,0,0,0,0,0,0,0,0,0,0,0,0,0,0,0,0,0,0,0,0,0,0,0,0,0,0,0,0,0,0,0,0,0,0,0,0,0,0,0,0,0,0,0,0,-0.6981,-0.6981,0,-0.7021,-0.7021,-0.7022,-0.6903,-0.69,-0.6896,-0.6893,-0.6935,-0.694,-0.6944,0,0,0,0,0,0,0,0,0,0,0,0,0,-0.6804,-0.6808,-0.6981,-0.6981,-0.6982,-0.7021,-0.7021,-0.7022,-0.6904,-0.69,-0.6895,-0.6891,-0.6934,-0.6939,-0.6945,0,0,0,0,0,0,0,0,0,0,0,0,0,-0.6866,-0.6809,-0.6981,-0.6928,-0.6923,-0.702,-0.7021,-0.7022,-0.6905,-0.6899,-0.6894,-0.6889,-0.6932,-0.6939,-0.6945,-0.7096,0,0,-0.6966,-0.6969,0,0,0,0,0,0,0,0,-0.6863,-0.6873,-0.6935,-0.6932,-0.6927,-0.6951,-0.6974,-0.7047,-0.6906,-0.6912,-0.6893,-0.6886,-0.6945,-0.6951,-0.697,-0.7098,-0.71,-0.6967,-0.6971,-0.6974,-0.6976,0,0,0,0,0,0,0,-0.6858,-0.687,-0.6997,-0.6936,-0.6931,-0.6902,-0.6905,-0.6987,-0.6959,-0.6911,-0.6903,-0.6909,-0.6942,-0.6964,-0.697,-0.7101,-0.6967,-0.6973,-0.6977,-0.6979,-0.7352,-0.7358,0,0,0,0,0,0,-0.6861,-0.6867,-0.6995,-0.6998,-0.6881,-0.691,-0.6913,-0.6949,-0.6957,-0.6954,-0.6913,-0.6903,-0.6955,-0.6962,-0.6971,-0.7147,-0.6974,-0.698,-0.6984,-0.7347,-0.7354,-0.736,0,0,0,0,0,0,-0.6857,-0.6873,-0.6994,-0.693,-0.6943,-0.6919,-0.696,-0.6953,-0.6974,-0.6959,-0.6954,-0.6941,-0.6951,-0.6962,-0.7065,-0.7147,-0.6983,-0.6989,-0.734,-0.7349,-0.7357,-0.7501,0,0,0,0,0,0,-0.6853,-0.6873,-0.693,-0.6932,-0.6947,-0.7088,-0.6965,-0.6957,-0.6986,-0.6973,-0.6984,-0.698,-0.6947,-0.7056,-0.7072,-0.7153,-0.6995,-0.7332,-0.7344,-0.7354,-0.7489,-0.7513,-0.7534,0,0,0,0,0,-0.6847,-0.697,-0.6933,-0.695,-0.7018,-0.7093,-0.7101,-0.706,-0.6993,-0.705,-0.704,-0.698,-0.7135,-0.7068,-0.7085,-0.7169,-0.7327,-0.734,-0.7353,-0.7478,-0.7508,-0.7534,0,0,0,0,0,0,-0.6979,-0.6969,-0.6929,-0.7056,-0.7076,-0.7072,-0.7143,-0.7094,-0.7134,-0.712,-0.7068,-0.7072,-0.7185,-0.7187,-0.7112,-0.7314,-0.722,-0.7237,-0.7309,-0.7337,-0.736,-0.7357,-0.7,0,0,0,0,0,-0.7022,-0.7083,-0.7072,-0.7185,-0.7197,-0.7169,-0.72,-0.7166,-0.7185,-0.7193,-0.7191,-0.7212,-0.7265,-0.7301,-0.735,-0.7488,-0.7488,-0.7555,-0.7578,-0.7597,-0.7612,-0.7684,-0.7713,-0.7403,-0.7403,-0.7403,0,0,-0.7113,-0.7116,-0.7158,-0.7212,-0.7223,-0.7287,-0.7177,-0.725,-0.7297,-0.7205,-0.7302,-0.7301,-0.7321,-0.7442,-0.7495,-0.7448,-0.7697,-0.7613,-0.7629,-0.7634,-0.77,-0.773,-0.7756,-0.7412,-0.741,-0.7409,0,0,-0.7312,-0.732,-0.7415,-0.7428,-0.7446,-0.7426,-0.7449,-0.7453,-0.7449,-0.7545,-0.7477,-0.7532,-0.7626,-0.7642,-0.7662,-0.7866,-0.7811,-0.7883,-0.8003,-0.8074,-0.8098,-0.8119,-0.8191,-0.8217,-0.7899,-0.7899,-0.7899,0,-0.7423,-0.7517,-0.747,-0.7547,-0.7572,-0.7491,-0.7586,-0.7601,-0.7635,-0.7654,-0.76,-0.7714,-0.7722,-0.7845,-0.7895,-0.7914,-0.7938,-0.7882,-0.8098,-0.8119,-0.8139,-0.8206,-0.8233,-0.7907,-0.7906,-0.7906,-0.7905,0,-0.7652,-0.7718,-0.7792,-0.7825,-0.7859,-0.7945,-0.7911,-0.7951,-0.7914,-0.79,-0.7999,-0.8005,-0.8052,-0.8079,-0.8045,-0.8198,-0.8167,-0.8107,-0.801,-0.8177,-0.824,-0.8265,-0.792,-0.7917,-0.7914,-0.7912,0,0,-0.7935,-0.794,-0.7968,-0.7981,-0.7995,-0.8045,-0.8127,-0.8172,-0.8207,-0.8233,-0.83,-0.838,-0.8323,-0.8347,-0.8313,-0.8376,-0.8535,-0.8307,-0.8306,-0.8348,-0.8702,-0.8747,-0.8777,-0.8499,-0.8503,-0.8507,-0.87,0,-0.813,-0.8269,-0.8229,-0.8369,-0.8429,-0.8351,-0.8422,-0.8438,-0.8427,-0.8476,-0.8463,-0.8521,-0.8442,-0.8456,-0.8514,-0.8503,-0.8605,-0.8489,-0.856,-0.8563,-0.8557,-0.881,-0.8858,-0.904,-0.8724,-0.8728,-0.8731,0,-0.8376,-0.841,-0.8556,-0.8557,-0.8581,-0.8646,-0.8683,-0.8731,-0.8747,-0.8735,-0.876,-0.8714,-0.8794,-0.8697,-0.8806,-0.8728,-0.8755,-0.8754,-0.876,-0.8764,-0.8657,-0.8821,-0.9097,-0.9124,-0.8769,-0.8766,-0.8763,0,-0.8567,-0.8649,-0.8746,-0.876,-0.8765,-0.8812,-0.8817,-0.8827,-0.8857,-0.889,-0.8908,-0.895,-0.8974,-0.9007,-0.8973,-0.8906,-0.9087,-0.8988,-0.9078,-0.9079,-0.912,-0.9118,-0.9403,-0.9139,-0.9138,-0.9138,-0.9137,0,-0.8788,-0.888,-0.8832,-0.8892,-0.8992,-0.8944,-0.9045,-0.9041,-0.9051,-0.9108,-0.9044,-0.91,-0.9051,-0.9102,-0.9076,-0.917,-0.9181,-0.9173,-0.9165,-0.9178,-0.9179,-0.9194,-0.9181,-0.9145,-0.9143,-0.9142,-0.9141,0,-0.9018,-0.899,-0.909,-0.9086,-0.9087,-0.9161,-0.9158,-0.9213,-0.9196,-0.927,-0.9284,-0.9259,-0.9315,-0.9284,-0.9343,-0.9325,-0.9446,-0.9422,-0.9441,-0.9434,-0.9525,-0.9517,-0.983,-0.9868,-0.9581,-0.9584,-0.9586,0,-0.9161,-0.9229,-0.9232,-0.9266,-0.9274,-0.9329,-0.9358,-0.9314,-0.9347,-0.9369,-0.9422,-0.9472,-0.951,-0.9604,-0.9591,-0.9635,-0.961,-0.9717,-0.9616,-0.9627,-0.961,-0.9606,-0.9612,-0.9737,-0.974,-0.9743,-0.9745,0,-0.9417,-0.9399,-0.9443,-0.9482,-0.9518,-0.9547,-0.9571,-0.9602,-0.9558,-0.9598,-0.9654,-0.9684,-0.9743,-0.9794,-0.9831,-0.9835,-0.9783,-0.9777,-0.98,-0.9814,-0.9822,-0.9817,-0.9495,-0.977,-0.9767,-0.9766,-0.9764,-0.9763,-0.9607,-0.9663,-0.9673,-0.9724,-0.9737,-0.976,-0.9811,-0.98,-0.9846,-0.989,-0.9861,-0.9928,-0.994,-0.9985,-0.9996,-1.0047,-1.0004,-1.0038,-1.0046,-1.0055,-1.0067,-0.9814,-1.0054,-1.0053,-1.0053,-1.0052,-1.0051,0,-0.9858,-0.986,-0.9908,-0.9942,-0.9982,-0.9928,-0.9951,-0.9988,-1.0047,-1.0063,-1.0101,-1.0165,-1.0214,-1.0204,-1.0248,-1.0291,-1.0268,-1.0304,-1.03,-1.0301,-1.0103,-1.0079,-1.0321,-1.0321,-1.0321,-1.0321,-1.0321,-1.0321,-0.9993,-1.0086,-1.0069,-1.0167,-1.0168,-1.0232,-1.025,-1.027,-1.0283,-1.0357,-1.0397,-1.0389,-1.0395,-1.0438,-1.048,-1.0476,-1.0495,-1.0539,-1.0526,-1.0342,-1.0315,-1.029,-1.0266,-1.0544,-1.0544,-1.0719,-1.0721,-1.0722]},{"header":{"parameterUnit":"m.s-1","parameterCategory":1,"la1":30.2991,"la2":30.254,"lo1":-89.0895,"lo2":-89.0444,"dy":0.0017,"dx":0.0017,"nx":28,"ny":28,"refTime":"2023-11-07T03:00:00:Z","depth":0,"parameterNumber":3,"parameterNumberName":"V-component_of_WINDS"},"data":[0,0,0,0,0,0,0,0,0,0,0,0,0,0,0,0,0,0,0,0,0,0,0,0,0,0,0,0,0,0,0,0,0,0,0,0,0,0,0,0,0,0,0,0,0,0,0,0,0,0,0,0,0,0,0,0,0,0,1.1218,1.1217,0,1.1111,1.111,1.1108,1.1142,1.1144,1.1147,1.1149,1.1033,1.1027,1.1022,0,0,0,0,0,0,0,0,0,0,0,0,0,1.1449,1.1444,1.1218,1.1217,1.1216,1.1111,1.111,1.1108,1.1142,1.1144,1.1147,1.115,1.1034,1.1028,1.1022,0,0,0,0,0,0,0,0,0,0,0,0,0,1.1345,1.1443,1.1219,1.122,1.1219,1.1111,1.1109,1.1108,1.1141,1.1144,1.1148,1.1151,1.1036,1.1029,1.1021,1.0903,0,0,1.0997,1.0994,0,0,0,0,0,0,0,0,1.1351,1.1337,1.1221,1.122,1.1218,1.1144,1.1148,1.1039,1.114,1.117,1.1149,1.1153,1.1066,1.1056,1.1028,1.0898,1.0893,1.0996,1.0991,1.0988,1.0986,0,0,0,0,0,0,0,1.1358,1.1342,1.1176,1.1219,1.1218,1.1225,1.1214,1.1128,1.11,1.1168,1.117,1.1157,1.1066,1.1036,1.1026,1.0891,1.0996,1.0989,1.0985,1.0982,1.066,1.0657,0,0,0,0,0,0,1.1367,1.1347,1.1179,1.1172,1.1295,1.1218,1.1206,1.1164,1.1101,1.1095,1.1155,1.1159,1.1047,1.1035,1.1022,1.088,1.0988,1.0981,1.0976,1.0664,1.066,1.0655,0,0,0,0,0,0,1.1372,1.1352,1.1183,1.126,1.124,1.121,1.1163,1.116,1.113,1.1091,1.1086,1.1129,1.105,1.1033,1.0933,1.0877,1.0977,1.097,1.0669,1.0663,1.0658,1.0596,0,0,0,0,0,0,1.1378,1.1353,1.1309,1.1259,1.1235,1.1098,1.116,1.1155,1.1117,1.1122,1.1065,1.1059,1.1051,1.0945,1.0925,1.0868,1.0964,1.0674,1.0666,1.0659,1.0603,1.0589,1.0577,0,0,0,0,0,1.1386,1.1294,1.1307,1.1286,1.118,1.1094,1.108,1.1074,1.1112,1.1067,1.1043,1.1061,1.0887,1.0934,1.0913,1.0852,1.0677,1.0668,1.066,1.0609,1.0592,1.0577,0,0,0,0,0,0,1.1335,1.1288,1.1301,1.119,1.1146,1.11,1.1043,1.1056,1.0999,1.1006,1.1,1.0987,1.0885,1.0859,1.0913,1.0736,1.0787,1.0774,1.0756,1.0739,1.0727,1.0734,1.0957,0,0,0,0,0,1.1312,1.1248,1.1209,1.1115,1.1093,1.1072,1.1034,1.1034,1.0987,1.0968,1.0936,1.0889,1.0824,1.078,1.0718,1.0601,1.0588,1.0548,1.0535,1.0525,1.0512,1.0449,1.043,1.0627,1.0627,1.0628,0,0,1.1261,1.1227,1.1187,1.1104,1.107,1.1003,1.1056,1.0982,1.0932,1.0956,1.0861,1.0836,1.0783,1.0674,1.0625,1.0649,1.0456,1.0514,1.0506,1.0499,1.0438,1.0419,1.0403,1.0621,1.0623,1.0623,0,0,1.1134,1.1103,1.1022,1.0988,1.0936,1.0923,1.0904,1.0856,1.0841,1.0746,1.0764,1.0704,1.0591,1.0553,1.0518,1.0381,1.0395,1.036,1.0291,1.0229,1.0214,1.02,1.015,1.0132,1.0349,1.0349,1.0349,0,1.1077,1.0978,1.0978,1.0903,1.0866,1.0889,1.0806,1.0772,1.0702,1.0676,1.0705,1.0566,1.0531,1.0414,1.0381,1.0353,1.033,1.0365,1.0217,1.0203,1.019,1.0142,1.0123,1.0345,1.0345,1.0346,1.0346,0,1.091,1.0841,1.0782,1.0717,1.0673,1.0594,1.0581,1.0537,1.0542,1.0525,1.0428,1.0389,1.0319,1.0292,1.0294,1.0175,1.0192,1.0219,1.027,1.0167,1.0122,1.0104,1.0339,1.034,1.0342,1.0343,0,0,1.0744,1.0683,1.0661,1.0632,1.0579,1.0525,1.0448,1.0383,1.0345,1.0297,1.0231,1.0137,1.0163,1.0124,1.0122,1.0068,0.9961,1.0102,1.0101,1.0076,0.9827,0.9806,0.9785,0.9972,0.9969,0.9966,0.9831,0,1.0613,1.0479,1.0478,1.0354,1.029,1.0312,1.0245,1.0205,1.0188,1.0131,1.0112,1.0045,1.0084,1.0061,1.0009,0.9985,0.9911,0.9995,0.9909,0.9906,0.992,0.9761,0.9738,0.9613,0.9814,0.9811,0.9809,0,1.044,1.0389,1.026,1.0218,1.0191,1.013,1.0071,1.0017,0.9971,0.9963,0.9921,0.9929,0.9849,0.9906,0.9796,0.9853,0.9818,0.9802,0.9797,0.9787,0.9849,0.9745,0.9573,0.9553,0.9781,0.9783,0.9785,0,1.0331,1.023,1.014,1.0115,1.0064,1.0021,0.9997,0.9956,0.9917,0.9865,0.984,0.9778,0.9744,0.9696,0.9687,0.9729,0.9576,0.9632,0.9566,0.9566,0.953,0.9532,0.9348,0.9511,0.9511,0.9511,0.9512,0,1.0182,1.0102,1.0091,1.0035,0.9946,0.9945,0.9857,0.9836,0.98,0.974,0.9755,0.9698,0.969,0.9631,0.9623,0.9533,0.9518,0.9508,0.9506,0.9505,0.9506,0.948,0.9488,0.9506,0.9508,0.9509,0.9509,0,1.0044,1.0034,0.9937,0.9898,0.9886,0.9822,0.9788,0.9734,0.9721,0.9645,0.9627,0.9605,0.9536,0.9523,0.9441,0.9436,0.9328,0.9336,0.9344,0.9344,0.9279,0.9285,0.907,0.9041,0.9224,0.9223,0.9221,0,0.9949,0.9888,0.9844,0.9806,0.9781,0.9719,0.9681,0.9679,0.9638,0.9583,0.9536,0.947,0.9416,0.9306,0.9281,0.9219,0.9225,0.9154,0.9215,0.9217,0.9222,0.9225,0.9219,0.9141,0.9139,0.9138,0.9136,0,0.9781,0.978,0.9725,0.9668,0.9623,0.9578,0.9535,0.9502,0.9495,0.9448,0.9379,0.9338,0.9257,0.919,0.9129,0.9103,0.9117,0.9118,0.9099,0.9096,0.9103,0.9098,0.931,0.9122,0.9123,0.9124,0.9125,0.9126,0.9661,0.9608,0.9569,0.9508,0.9476,0.9437,0.9385,0.9366,0.931,0.9244,0.9247,0.9171,0.9129,0.9049,0.902,0.896,0.8982,0.8955,0.8948,0.8941,0.8934,0.9115,0.8949,0.8949,0.895,0.895,0.895,0,0.9493,0.947,0.9414,0.9355,0.9306,0.9328,0.9283,0.924,0.9174,0.9135,0.9083,0.9005,0.8941,0.8914,0.8851,0.8809,0.8814,0.8792,0.8794,0.8788,0.8918,0.894,0.8789,0.8789,0.8789,0.8789,0.8789,0.8789,0.9399,0.9312,0.9306,0.9203,0.918,0.9108,0.9081,0.9044,0.9013,0.8925,0.8874,0.8857,0.8822,0.8758,0.87,0.8694,0.8669,0.8644,0.864,0.8762,0.8778,0.8794,0.8815,0.8639,0.8639,0.8515,0.8514,0.8513]}]]